Simultaneous Nadir Overpasses (SNOs) Predictions

Prediction of SNOs between AQUA and NOAA-19 Satellite Orbit:

Table of predicted SNOs for the next 14.0 days since TLE Epoch: 3/28/2014
Index Date (AQUA) Time (AQUA) Lat,Lon (AQUA) SZA (AQUA ) Date (NOAA-19) Time (NOAA-19) Lat,Lon (NOAA-19) SZA (NOAA-19 ) Distance(km) Time Diff (sec)
1 03/29/2014 18:55:55 -74.53, 68.88 108.96 03/29/2014 18:54:58 -74.54, 68.81 108.94 2.36 57
2 03/29/2014 19:44:56 73.15,-120.43 69.55 03/29/2014 19:45:27 73.15,-120.48 69.56 1.68 31
3 03/31/2014 23:41:56 -79.30, -20.80 104.04 03/31/2014 23:40:42 -79.02, -21.89 104.17 38.83 74
4 04/01/2014 00:29:16 73.30, 168.19 68.86 04/01/2014 00:29:27 73.29, 168.24 68.85 2.06 11
5 04/03/2014 05:13:44 73.93, 95.78 68.67 04/03/2014 05:13:37 73.93, 95.73 68.68 1.63 7
6 04/05/2014 09:58:06 74.29, 23.89 68.21 04/05/2014 09:57:41 74.29, 23.85 68.23 1.24 25
7 04/05/2014 10:46:56 -72.42,-164.59 113.78 04/05/2014 10:48:09 -72.41,-164.55 113.79 1.27 73
8 04/07/2014 14:42:27 74.64, -48.03 67.77 04/07/2014 14:41:45 74.65, -48.11 67.79 2.49 42
9 04/07/2014 15:31:22 -73.05, 123.15 113.95 04/07/2014 15:32:18 -73.05, 123.12 113.95 1.07 56
10 04/09/2014 19:26:43 74.79,-119.47 67.11 04/09/2014 19:25:44 74.79,-119.46 67.12 0.44 59




NCC Satellite Simultaneous Nadir Overpasses (SNOs) Prediction Service
